DW3845 Weather Reports


Display with metric or nautical units.
time (UTC)temp
F
wind
direction
speed
MPH
gust
MPH
rain 1hr
in
rain 24hr
in
rain mn
in
humidity
%
barometer
mb
20260831153057 53 47 0.0 0.0 0.00 0.00 0.00 79 1003.3
20260831151555 52 46 0.0 0.0 0.00 0.00 0.00 79 1003.3
20260831150057 48 46 0.0 0.0 0.00 0.00 0.00 84 1003.4
20260831144553 46 46 0.0 0.0 0.00 0.00 0.00 83 1003.3
20260831143046 44 47 1.0 2.0 0.00 0.00 0.00 83 1003.2
20260831141549 43 46 1.0 2.0 0.00 0.00 0.00 81 1003.1
20260831140044 43 47 2.0 3.0 0.00 0.00 0.00 82 1003.1
20260831134544 42 51 0.0 3.0 0.00 0.00 0.00 82 1002.9
20260831133040 41 47 3.0 3.0 0.00 0.00 0.00 83 1002.9
20260831131553 41 47 1.0 3.0 0.00 0.00 0.00 84 1002.7
20260831130042 42 46 1.0 3.0 0.00 0.00 0.00 84 1002.6
20260831124539 41 34 1.0 2.0 0.00 0.00 0.00 83 1002.6
20260831123032 42 40 2.0 2.0 0.00 0.00 0.00 83 1002.5
20260831121531 42 46 2.0 3.0 0.00 0.00 0.00 84 1002.6
20260831120029 42 44 2.0 2.0 0.00 0.00 0.00 84 1002.5
20260831114527 42 41 1.0 2.0 0.00 0.03 0.00 84 1002.5
20260831113027 42 50 2.0 3.0 0.00 0.03 0.00 83 1002.5
20260831111536 42 42 2.0 3.0 0.00 0.03 0.00 81 1002.4
20260831110022 42 44 1.0 3.0 0.00 0.03 0.00 83 1002.3
20260831104525 42 44 2.0 3.0 0.00 0.03 0.00 82 1002.1
20260831103019 42 44 2.0 2.0 0.00 0.03 0.00 81 1002.2
20260831101516 43 44 1.0 2.0 0.00 0.03 0.00 80 1002.0
20260831100016 43 46 2.0 3.0 0.00 0.03 0.00 79 1001.9
20260831094530 43 46 2.0 4.0 0.00 0.03 0.00 80 1001.9
20260831093033 44 38 2.0 3.0 0.00 0.03 0.00 79 1002.0
20260831091508 44 42 2.0 3.0 0.00 0.03 0.00 78 1002.1
20260831090007 44 42 1.0 3.0 0.00 0.03 0.00 78 1002.1
20260831084511 45 46 1.0 3.0 0.00 0.03 0.00 77 1002.0
20260831083003 45 43 1.0 2.0 0.00 0.03 0.00 77 1002.0
20260831081505 45 44 2.0 3.0 0.00 0.03 0.00 76 1002.0
20260831080128 45 40 1.0 2.0 0.00 0.03 0.00 76 1002.1
20260831074557 45 51 1.0 3.0 0.00 0.03 0.00 75 1002.0
20260831073055 46 43 2.0 3.0 0.00 0.03 0.00 74 1001.9
20260831071551 47 44 3.0 4.0 0.00 0.03 0.00 72 1001.9
20260831070049 47 44 2.0 4.0 0.00 0.03 0.00 73 1002.0
20260831064549 47 13 1.0 3.0 0.00 0.03 0.03 72 1002.0
20260831063105 47 44 2.0 3.0 0.00 0.03 0.03 72 1002.0
20260831061545 48 46 2.0 3.0 0.00 0.03 0.03 71 1001.8
20260831060045 48 40 2.0 2.0 0.00 0.03 0.03 71 1001.8
20260831054541 48 44 1.0 3.0 0.00 0.03 0.03 69 1001.7
20260831053111 49 46 2.0 3.0 0.00 0.03 0.03 69 1001.7
20260831051540 49 41 1.0 3.0 0.00 0.03 0.03 68 1001.7
20260831050039 50 42 2.0 3.0 0.00 0.03 0.03 67 1001.6
20260831044629 51 46 1.0 3.0 0.00 0.03 0.03 66 1001.7
20260831043040 52 42 2.0 2.0 0.00 0.03 0.03 64 1001.7
20260831041539 53 43 2.0 3.0 0.00 0.03 0.03 63 1001.7
20260831040037 54 27 2.0 3.0 0.00 0.03 0.03 61 1001.6
20260831034536 55 46 1.0 4.0 0.00 0.03 0.03 60 1001.6
20260831033051 55 44 1.0 2.0 0.00 0.03 0.03 60 1001.5
20260831031538 55 46 1.0 3.0 0.00 0.03 0.03 59 1001.4
20260831030034 56 41 0.0 3.0 0.00 0.03 0.03 57 1001.2
20260831024534 59 38 1.0 1.0 0.00 0.03 0.03 53 1001.0
20260831023033 62 50 0.0 1.0 0.00 0.03 0.03 45 1000.9
20260831021532 64 50 0.0 0.0 0.00 0.03 0.03 44 1000.7
20260831020032 65 50 0.0 1.0 0.00 0.03 0.03 43 1000.8
20260831014530 66 174 0.0 0.0 0.00 0.03 0.03 43 1000.9
20260831013029 66 177 0.0 3.0 0.00 0.03 0.03 39 1000.9
20260831011529 67 155 0.0 3.0 0.00 0.03 0.03 39 1000.9
20260831010048 67 172 0.0 3.0 0.00 0.03 0.03 39 1000.9
20260831004527 67 169 0.0 5.0 0.00 0.03 0.03 38 1000.9
20260831003031 67 162 0.0 4.0 0.00 0.03 0.03 39 1000.8
20260831001525 67 197 0.0 3.0 0.00 0.03 0.03 40 1000.8
20260831000025 68 239 0.0 2.0 0.00 0.03 0.03 38 1000.8
20260830234526 68 173 2.0 8.0 0.00 0.03 0.03 37 1000.9
20260830233033 68 168 2.0 7.0 0.00 0.03 0.03 38 1001.1
20260830231522 67 158 1.0 6.0 0.00 0.03 0.03 39 1001.1
20260830230021 68 165 2.0 6.0 0.00 0.03 0.03 39 1001.2
20260830224520 67 247 2.0 7.0 0.00 0.03 0.03 40 1001.3
20260830223019 67 137 0.0 3.0 0.00 0.03 0.03 41 1001.4
20260830221519 68 160 0.0 4.0 0.00 0.03 0.03 41 1001.4
20260830220018 69 111 1.0 5.0 0.00 0.03 0.03 41 1001.6
20260830214521 67 119 2.0 5.0 0.00 0.03 0.03 41 1001.7
20260830213015 68 162 1.0 6.0 0.00 0.03 0.03 41 1001.9
20260830211512 67 260 2.0 10.0 0.00 0.03 0.03 42 1002.0
20260830210010 67 245 0.0 6.0 0.00 0.03 0.03 44 1002.2
20260830204510 66 129 3.0 7.0 0.00 0.03 0.03 44 1002.3
20260830203012 65 142 1.0 7.0 0.00 0.03 0.03 47 1002.1
20260830201605 62 317 0.0 4.0 0.00 0.03 0.03 50 1002.1
20260830200057 61 37 0.0 1.0 0.00 0.03 0.03 54 1002.3
20260830194555 60 109 0.0 4.0 0.00 0.03 0.03 54 1002.3
20260830193052 59 19 0.0 1.0 0.00 0.03 0.03 57 1002.4
20260830191547 57 281 0.0 1.0 0.00 0.03 0.03 61 1002.5
20260830190044 56 64 0.0 2.0 0.00 0.03 0.03 64 1002.6
20260830184548 56 348 0.0 2.0 0.00 0.03 0.03 69 1002.7
20260830183042 56 71 0.0 2.0 0.00 0.03 0.03 69 1002.7
20260830181543 56 143 0.0 2.0 0.00 0.03 0.03 71 1002.7
20260830180041 56 273 0.0 2.0 0.00 0.03 0.03 69 1002.7
20260830174534 54 167 0.0 0.0 0.00 0.03 0.03 74 1002.7
20260830173031 53 169 0.0 1.0 0.00 0.03 0.03 78 1002.6
20260830171528 52 276 0.0 1.0 0.00 0.03 0.03 82 1002.6
20260830170027 51 193 0.0 1.0 0.00 0.03 0.03 84 1002.6
20260830164525 51 37 0.0 0.0 0.00 0.03 0.03 81 1002.6
20260830163028 51 37 0.0 0.0 0.00 0.03 0.03 83 1002.4
20260830161523 51 37 0.0 1.0 0.00 0.03 0.03 79 1002.4
20260830160021 51 37 0.0 0.0 0.00 0.03 0.03 77 1002.3
20260830154521 51 37 0.0 0.0 0.00 0.03 0.03 76 1002.2